Photometre #855[NE_1.6_Dp] Loftus_MO AOT

File : 20220928_855.hum

28/09/2022,07:01:11,TEMP=9.7,BA=5.64,STAT.h
28/09/2022,07:01:12,TEMP=9.7,BA=5.64,STAT.h
28/09/2022,07:03:01,TEMP=9.7,BA=5.64,STAT.h
28/09/2022,07:05:44,TEMP=9.7,BA=5.64,STAT.h
28/09/2022,07:05:45,TEMP=9.7,BA=5.64,STAT.h
28/09/2022,07:06:01,TEMP=9.7,BA=5.64,STAT.h
28/09/2022,07:09:01,TEMP=9.7,BA=5.64,STAT.h
28/09/2022,07:11:04,TEMP=9.7,BA=5.64,STAT.h
28/09/2022,07:11:05,TEMP=9.7,BA=5.64,STAT.h
28/09/2022,07:12:01,TEMP=9.7,BA=5.64,STAT.h
28/09/2022,07:15:01,TEMP=9.7,BA=5.64,STAT.h
28/09/2022,07:17:27,TEMP=9.7,BA=5.64,STAT.h
28/09/2022,07:17:28,TEMP=9.7,BA=5.64,STAT.h
28/09/2022,07:18:01,TEMP=9.7,BA=5.64,STAT.h
28/09/2022,07:21:01,TEMP=9.7,BA=5.64,STAT.h
28/09/2022,07:24:01,TEMP=9.7,BA=5.64,STAT.h
28/09/2022,07:25:11,TEMP=9.7,BA=5.64,STAT.h
28/09/2022,07:25:12,TEMP=9.7,BA=5.64,STAT.h
28/09/2022,07:27:01,TEMP=9.7,BA=5.64,STAT.h
28/09/2022,07:30:01,TEMP=9.7,BA=5.64,STAT.h
28/09/2022,07:33:01,TEMP=9.7,BA=5.64,STAT.h
28/09/2022,07:34:48,TEMP=9.7,BA=5.64,STAT.h
28/09/2022,07:34:49,TEMP=9.7,BA=5.64,STAT.h
28/09/2022,07:36:01,TEMP=9.7,BA=5.64,STAT.h
28/09/2022,07:39:01,TEMP=9.7,BA=5.64,STAT.h
28/09/2022,07:42:01,TEMP=9.7,BA=5.64,STAT.h
28/09/2022,07:45:23,TEMP=8.4,BA=5.64,STAT.D,ExtBa=12.30
28/09/2022,07:47:05,TEMP=8.8,BA=5.64,STAT.h
28/09/2022,07:53:24,TEMP=8.7,BA=5.64,STAT.A,ExtBa=12.30
28/09/2022,07:59:44,TEMP=9.1,BA=5.64,STAT.h
28/09/2022,07:59:45,TEMP=9.1,BA=5.64,STAT.h
28/09/2022,08:00:01,TEMP=9.1,BA=5.64,STAT.h
28/09/2022,08:03:01,TEMP=9.1,BA=5.64,STAT.h
28/09/2022,08:06:01,TEMP=9.1,BA=5.64,STAT.h
28/09/2022,08:07:22,TEMP=9.1,BA=5.64,STAT.h
28/09/2022,08:07:23,TEMP=9.1,BA=5.64,STAT.h
28/09/2022,08:09:01,TEMP=9.1,BA=5.64,STAT.h
28/09/2022,08:12:01,TEMP=9.1,BA=5.64,STAT.h
28/09/2022,08:15:01,TEMP=9.1,BA=5.64,STAT.h
28/09/2022,08:16:10,TEMP=9.1,BA=5.64,STAT.h
28/09/2022,08:16:16,TEMP=9.1,BA=5.64,STAT.h
28/09/2022,08:26:51,TEMP=9.2,BA=5.64,STAT.C,ExtBa=12.30
28/09/2022,08:39:04,TEMP=9.3,BA=5.64,STAT.A,ExtBa=12.30
28/09/2022,08:42:23,TEMP=9.5,BA=5.64,STAT.D,ExtBa=12.30
28/09/2022,08:45:23,TEMP=9.7,BA=5.64,STAT.D,ExtBa=12.30
28/09/2022,08:53:54,TEMP=9.7,BA=5.64,STAT.A,ExtBa=12.30
28/09/2022,08:56:06,TEMP=10.1,BA=5.64,STAT.F,ExtBa=12.20
28/09/2022,09:06:17,TEMP=10.5,BA=5.60,STAT.b=11.0
28/09/2022,09:10:01,TEMP=10.2,BA=5.60,STAT.D,ExtBa=12.20
28/09/2022,09:21:23,TEMP=9.9,BA=5.64,STAT.D,ExtBa=12.20
28/09/2022,09:24:45,TEMP=10.0,BA=5.64,STAT.D,ExtBa=12.20
28/09/2022,09:36:23,TEMP=9.6,BA=5.64,STAT.D,ExtBa=12.20
28/09/2022,09:39:45,TEMP=9.7,BA=5.64,STAT.D,ExtBa=12.20
28/09/2022,09:51:23,TEMP=9.3,BA=5.64,STAT.D,ExtBa=12.20
28/09/2022,09:54:47,TEMP=9.4,BA=5.64,STAT.F,ExtBa=12.20
28/09/2022,10:04:12,TEMP=9.4,BA=5.60,STAT.D,ExtBa=12.20
28/09/2022,10:09:45,TEMP=9.6,BA=5.60,STAT.D,ExtBa=12.20
28/09/2022,10:21:23,TEMP=10.1,BA=5.64,STAT.D,ExtBa=12.20
28/09/2022,10:24:45,TEMP=10.5,BA=5.64,STAT.D,ExtBa=12.20
28/09/2022,10:27:23,TEMP=10.8,BA=5.64,STAT.D,ExtBa=12.20
28/09/2022,10:39:24,TEMP=12.1,BA=5.64,STAT.D,ExtBa=12.20
28/09/2022,10:41:22,TEMP=12.7,BA=5.64,STAT.D,ExtBa=12.20
28/09/2022,10:51:23,TEMP=12.0,BA=5.64,STAT.D,ExtBa=12.20
28/09/2022,10:54:24,TEMP=12.2,BA=5.64,STAT.D,ExtBa=12.20
28/09/2022,10:56:22,TEMP=12.6,BA=5.64,STAT.F,ExtBa=12.20
28/09/2022,11:09:45,TEMP=12.3,BA=5.64,STAT.D,ExtBa=12.20
28/09/2022,11:12:24,TEMP=12.4,BA=5.64,STAT.D,ExtBa=12.20
28/09/2022,11:15:23,TEMP=12.5,BA=5.64,STAT.D,ExtBa=12.20
28/09/2022,11:18:24,TEMP=12.5,BA=5.64,STAT.D,ExtBa=12.20
28/09/2022,11:21:24,TEMP=12.5,BA=5.64,STAT.D,ExtBa=12.20
28/09/2022,11:24:24,TEMP=12.8,BA=5.64,STAT.D,ExtBa=12.10
28/09/2022,11:26:35,TEMP=13.3,BA=5.64,STAT.D,ExtBa=12.10
28/09/2022,11:33:11,TEMP=13.4,BA=5.60,STAT.D,ExtBa=12.20
28/09/2022,11:39:46,TEMP=12.9,BA=5.60,STAT.D,ExtBa=12.20
28/09/2022,11:51:24,TEMP=12.3,BA=5.64,STAT.D,ExtBa=12.20
28/09/2022,11:54:24,TEMP=12.6,BA=5.64,STAT.D,ExtBa=12.20
28/09/2022,11:56:27,TEMP=13.2,BA=5.64,STAT.F,ExtBa=12.10
28/09/2022,12:09:24,TEMP=13.0,BA=5.64,STAT.D,ExtBa=12.20
28/09/2022,12:11:24,TEMP=13.4,BA=5.64,STAT.D,ExtBa=12.10
28/09/2022,12:24:24,TEMP=12.3,BA=5.64,STAT.D,ExtBa=12.20
28/09/2022,12:26:20,TEMP=12.6,BA=5.64,STAT.D,ExtBa=12.20
28/09/2022,12:39:24,TEMP=11.7,BA=5.64,STAT.D,ExtBa=12.20
28/09/2022,12:41:23,TEMP=12.1,BA=5.60,STAT.D,ExtBa=12.20
28/09/2022,12:47:46,TEMP=11.9,BA=5.60,STAT.D,ExtBa=12.20
28/09/2022,12:54:47,TEMP=11.9,BA=5.64,STAT.F,ExtBa=12.20
28/09/2022,13:06:24,TEMP=12.2,BA=5.64,STAT.D,ExtBa=12.20
28/09/2022,13:09:24,TEMP=12.7,BA=5.64,STAT.D,ExtBa=12.20
28/09/2022,13:11:24,TEMP=13.2,BA=5.64,STAT.D,ExtBa=12.10
28/09/2022,13:24:23,TEMP=12.4,BA=5.64,STAT.D,ExtBa=12.20
28/09/2022,13:26:20,TEMP=12.7,BA=5.64,STAT.D,ExtBa=12.20
28/09/2022,13:30:24,TEMP=12.5,BA=5.64,STAT.D,ExtBa=12.20
28/09/2022,13:33:23,TEMP=12.7,BA=5.64,STAT.D,ExtBa=12.20
28/09/2022,13:36:23,TEMP=12.7,BA=5.64,STAT.D,ExtBa=12.20
28/09/2022,13:39:45,TEMP=12.6,BA=5.64,STAT.D,ExtBa=12.20
28/09/2022,13:42:23,TEMP=12.7,BA=5.60,STAT.D,ExtBa=12.20
28/09/2022,13:45:23,TEMP=12.7,BA=5.60,STAT.D,ExtBa=12.20
28/09/2022,13:54:47,TEMP=12.6,BA=5.64,STAT.F,ExtBa=12.20
28/09/2022,14:18:20,TEMP=13.4,BA=5.60,STAT.D,ExtBa=12.10
28/09/2022,14:24:45,TEMP=11.8,BA=5.60,STAT.D,ExtBa=12.10
28/09/2022,14:36:23,TEMP=10.5,BA=5.64,STAT.D,ExtBa=12.20
28/09/2022,14:39:45,TEMP=10.4,BA=5.64,STAT.D,ExtBa=12.20
28/09/2022,14:51:23,TEMP=10.0,BA=5.64,STAT.D,ExtBa=12.20
28/09/2022,14:54:47,TEMP=10.1,BA=5.64,STAT.F,ExtBa=12.20
28/09/2022,14:56:45,TEMP=10.5,BA=5.64,STAT.A,ExtBa=12.20
28/09/2022,15:09:23,TEMP=9.9,BA=5.64,STAT.D,ExtBa=12.20
28/09/2022,15:11:21,TEMP=10.3,BA=5.64,STAT.A,ExtBa=12.20
28/09/2022,15:22:43,TEMP=9.7,BA=5.64,STAT.C,ExtBa=12.20
28/09/2022,15:32:36,TEMP=10.1,BA=5.64,STAT.h
28/09/2022,15:32:37,TEMP=10.1,BA=5.64,STAT.h
28/09/2022,15:33:01,TEMP=10.1,BA=5.64,STAT.h
28/09/2022,15:36:01,TEMP=10.1,BA=5.64,STAT.h
28/09/2022,15:39:23,TEMP=9.6,BA=5.64,STAT.D,ExtBa=12.20
28/09/2022,15:40:30,TEMP=9.6,BA=5.64,STAT.h
28/09/2022,15:41:24,TEMP=9.6,BA=5.64,STAT.h
28/09/2022,15:42:01,TEMP=9.6,BA=5.64,STAT.h
28/09/2022,15:45:20,TEMP=9.6,BA=5.64,STAT.h
28/09/2022,15:49:02,TEMP=9.6,BA=5.64,STAT.h
28/09/2022,15:49:03,TEMP=9.6,BA=5.64,STAT.h
28/09/2022,15:51:23,TEMP=9.7,BA=5.64,STAT.D,ExtBa=12.20
28/09/2022,15:56:02,TEMP=10.0,BA=5.64,STAT.h
28/09/2022,15:56:06,TEMP=10.0,BA=5.64,STAT.h
28/09/2022,16:01:41,TEMP=10.0,BA=5.64,STAT.h
28/09/2022,16:03:01,TEMP=10.0,BA=5.64,STAT.h
28/09/2022,16:06:01,TEMP=10.0,BA=5.64,STAT.h
28/09/2022,16:09:01,TEMP=10.0,BA=5.64,STAT.h
28/09/2022,16:12:01,TEMP=10.0,BA=5.64,STAT.h
28/09/2022,16:13:58,TEMP=10.0,BA=5.64,STAT.h
28/09/2022,16:13:59,TEMP=10.0,BA=5.64,STAT.h
28/09/2022,16:15:01,TEMP=10.0,BA=5.64,STAT.h
28/09/2022,16:18:23,TEMP=9.5,BA=5.64,STAT.D,ExtBa=12.20
28/09/2022,16:23:58,TEMP=9.7,BA=5.64,STAT.A,ExtBa=12.20
28/09/2022,16:24:10,TEMP=9.7,BA=5.64,STAT.h
28/09/2022,16:24:21,TEMP=9.7,BA=5.64,STAT.h
28/09/2022,16:31:19,TEMP=9.7,BA=5.64,STAT.h
28/09/2022,16:33:01,TEMP=9.7,BA=5.64,STAT.h
28/09/2022,16:36:01,TEMP=9.7,BA=5.64,STAT.h
28/09/2022,16:37:42,TEMP=9.7,BA=5.64,STAT.h
28/09/2022,16:37:43,TEMP=9.7,BA=5.64,STAT.h
28/09/2022,16:39:01,TEMP=9.7,BA=5.64,STAT.h
28/09/2022,16:42:01,TEMP=9.7,BA=5.64,STAT.h
28/09/2022,16:43:02,TEMP=9.7,BA=5.64,STAT.h
28/09/2022,16:43:03,TEMP=9.7,BA=5.64,STAT.h
28/09/2022,16:45:23,TEMP=9.5,BA=5.64,STAT.D,ExtBa=12.20
28/09/2022,16:47:58,TEMP=9.8,BA=5.64,STAT.A,ExtBa=12.20
28/09/2022,16:48:40,TEMP=9.8,BA=5.64,STAT.h
28/09/2022,16:48:52,TEMP=9.8,BA=5.64,STAT.h
28/09/2022,16:59:23,TEMP=9.8,BA=5.64,STAT.h